| time (UTC) | temp F | wind direction | speed MPH | gust MPH | rain 1hr in | rain 24hr in | rain mn in | humidity % | barometer mb |
| 20260509094343 | 71 | 35 | 3.0 | 6.0 | 0.00 | 0.00 | 0.00 | 98 | 1011.6 |
| 20260509093325 | 71 | 334 | 3.0 | 5.0 | 0.00 | 0.00 | 0.00 | 98 | 1011.6 |
| 20260509092341 | 71 | 151 | 0.0 | 1.0 | 0.00 | 0.00 | 0.00 | 98 | 1011.2 |
| 20260509091351 | 71 | 151 | 0.0 | 0.0 | 0.00 | 0.00 | 0.00 | 97 | 1010.7 |
| 20260509090329 | 71 | 151 | 0.0 | 0.0 | 0.00 | 0.00 | 0.00 | 97 | 1010.7 |
| 20260509085350 | 71 | 151 | 0.0 | 0.0 | 0.00 | 0.00 | 0.00 | 97 | 1010.8 |
| 20260509084332 | 72 | 151 | 0.0 | 0.0 | 0.00 | 0.00 | 0.00 | 97 | 1010.9 |
| 20260509083322 | 72 | 139 | 0.0 | 0.0 | 0.00 | 0.00 | 0.00 | 96 | 1011.2 |
| 20260509082333 | 72 | 139 | 0.0 | 0.0 | 0.00 | 0.00 | 0.00 | 96 | 1011.2 |
| 20260509081325 | 72 | 139 | 0.0 | 0.0 | 0.00 | 0.00 | 0.00 | 96 | 1011.3 |
| 20260509080336 | 72 | 139 | 0.0 | 0.0 | 0.00 | 0.00 | 0.00 | 96 | 1011.1 |
| 20260509075327 | 72 | 139 | 0.0 | 0.0 | 0.00 | 0.00 | 0.00 | 96 | 1011.3 |
| 20260509074334 | 73 | 139 | 0.0 | 0.0 | 0.00 | 0.00 | 0.00 | 96 | 1011.7 |
| 20260509073325 | 73 | 139 | 0.0 | 1.0 | 0.00 | 0.00 | 0.00 | 95 | 1011.7 |
| 20260509072332 | 73 | 139 | 0.0 | 3.0 | 0.00 | 0.00 | 0.00 | 95 | 1011.8 |
| 20260509071322 | 73 | 190 | 0.0 | 3.0 | 0.00 | 0.00 | 0.00 | 95 | 1011.8 |
| 20260509070332 | 73 | 164 | 0.0 | 2.0 | 0.00 | 0.00 | 0.00 | 95 | 1011.6 |
| 20260509065324 | 73 | 217 | 0.0 | 1.0 | 0.00 | 0.00 | 0.00 | 95 | 1011.2 |
| 20260509064334 | 73 | 142 | 1.0 | 3.0 | 0.00 | 0.00 | 0.00 | 95 | 1011.6 |
| 20260509063323 | 73 | 145 | 0.0 | 3.0 | 0.00 | 0.00 | 0.00 | 95 | 1011.6 |
| 20260509062334 | 73 | 153 | 0.0 | 3.0 | 0.00 | 0.00 | 0.00 | 95 | 1011.7 |
| 20260509061342 | 73 | 127 | 0.0 | 2.0 | 0.00 | 0.00 | 0.00 | 94 | 1011.6 |
| 20260509060327 | 73 | 127 | 0.0 | 1.0 | 0.00 | 0.00 | 0.00 | 94 | 1011.5 |
| 20260509055338 | 73 | 127 | 0.0 | 2.0 | 0.00 | 0.00 | 0.00 | 95 | 1011.7 |
| 20260509054328 | 73 | 128 | 0.0 | 2.0 | 0.00 | 0.00 | 0.00 | 95 | 1011.1 |
| 20260509053338 | 73 | 78 | 1.0 | 3.0 | 0.00 | 0.00 | 0.00 | 94 | 1010.6 |
| 20260509052349 | 72 | 101 | 1.0 | 3.0 | 0.00 | 0.00 | 0.00 | 95 | 1010.2 |
| 20260509051339 | 72 | 91 | 0.0 | 3.0 | 0.00 | 0.00 | 0.00 | 95 | 1010.3 |
| 20260509050350 | 72 | 109 | 1.0 | 2.0 | 0.00 | 0.00 | 0.00 | 94 | 1010.1 |
| 20260509045332 | 72 | 128 | 0.0 | 4.0 | 0.00 | 0.00 | 0.00 | 94 | 1010.0 |
| 20260509044323 | 72 | 129 | 1.0 | 3.0 | 0.00 | 0.00 | 0.00 | 94 | 1010.2 |
| 20260509043334 | 72 | 131 | 0.0 | 1.0 | 0.00 | 0.00 | 0.00 | 94 | 1010.5 |
| 20260509042325 | 72 | 131 | 0.0 | 1.0 | 0.00 | 0.00 | 0.00 | 94 | 1010.7 |
| 20260509041335 | 72 | 131 | 0.0 | 1.0 | 0.00 | 0.00 | 0.00 | 94 | 1010.7 |
| 20260509040326 | 72 | 131 | 0.0 | 1.0 | 0.00 | 0.00 | 0.00 | 94 | 1010.6 |
| 20260509035336 | 72 | 131 | 0.0 | 1.0 | 0.00 | 0.00 | 0.00 | 94 | 1010.6 |
| 20260509034327 | 72 | 131 | 0.0 | 1.0 | 0.00 | 0.00 | 0.00 | 94 | 1010.7 |
| 20260509033337 | 72 | 131 | 0.0 | 1.0 | 0.00 | 0.00 | 0.00 | 94 | 1010.5 |
| 20260509032325 | 72 | 131 | 0.0 | 1.0 | 0.00 | 0.00 | 0.00 | 94 | 1010.5 |
| 20260509031331 | 72 | 131 | 0.0 | 1.0 | 0.00 | 0.00 | 0.00 | 94 | 1010.4 |
| 20260509030339 | 72 | 131 | 0.0 | 2.0 | 0.00 | 0.00 | 0.00 | 93 | 1010.1 |
| 20260509025328 | 72 | 143 | 0.0 | 2.0 | 0.00 | 0.00 | 0.00 | 93 | 1010.0 |
| 20260509024336 | 72 | 129 | 0.0 | 3.0 | 0.00 | 0.00 | 0.00 | 93 | 1009.8 |
| 20260509023326 | 72 | 141 | 1.0 | 2.0 | 0.00 | 0.00 | 0.00 | 93 | 1009.9 |
| 20260509022337 | 73 | 141 | 0.0 | 2.0 | 0.00 | 0.00 | 0.00 | 92 | 1010.0 |
| 20260509021328 | 73 | 141 | 1.0 | 3.0 | 0.00 | 0.00 | 0.00 | 92 | 1009.9 |
| 20260509020339 | 73 | 127 | 0.0 | 2.0 | 0.00 | 0.00 | 0.00 | 91 | 1009.7 |
| 20260509015329 | 74 | 94 | 0.0 | 5.0 | 0.00 | 0.00 | 0.00 | 91 | 1009.5 |
| 20260509014339 | 74 | 122 | 1.0 | 5.0 | 0.00 | 0.00 | 0.00 | 90 | 1009.4 |
| 20260509013346 | 74 | 101 | 0.0 | 4.0 | 0.00 | 0.00 | 0.00 | 89 | 1009.4 |
| 20260509012336 | 74 | 89 | 1.0 | 4.0 | 0.00 | 0.00 | 0.00 | 89 | 1009.4 |
| 20260509011348 | 75 | 75 | 2.0 | 7.0 | 0.00 | 0.00 | 0.00 | 88 | 1009.2 |
| 20260509010329 | 75 | 133 | 3.0 | 8.0 | 0.00 | 0.00 | 0.00 | 88 | 1009.1 |
| 20260509005349 | 75 | 113 | 4.0 | 7.0 | 0.00 | 0.00 | 0.00 | 88 | 1009.3 |
| 20260509004329 | 75 | 84 | 3.0 | 6.0 | 0.00 | 0.00 | 0.00 | 88 | 1009.4 |
| 20260509003350 | 75 | 71 | 3.0 | 6.0 | 0.00 | 0.00 | 0.00 | 87 | 1009.3 |
| 20260509002331 | 75 | 84 | 3.0 | 5.0 | 0.00 | 0.00 | 0.00 | 87 | 1009.1 |
| 20260509001322 | 76 | 84 | 2.0 | 6.0 | 0.00 | 0.00 | 0.00 | 87 | 1009.3 |
| 20260509000333 | 76 | 103 | 4.0 | 6.0 | 0.00 | 0.00 | 0.00 | 86 | 1009.5 |
| 20260508235324 | 76 | 84 | 4.0 | 7.0 | 0.00 | 0.00 | 0.00 | 86 | 1009.4 |
| 20260508234335 | 76 | 94 | 2.0 | 7.0 | 0.00 | 0.00 | 0.00 | 86 | 1009.4 |
| 20260508233326 | 76 | 46 | 3.0 | 6.0 | 0.00 | 0.00 | 0.00 | 85 | 1009.6 |
| 20260508232337 | 76 | 77 | 3.0 | 7.0 | 0.00 | 0.00 | 0.00 | 85 | 1009.3 |
| 20260508231325 | 77 | 73 | 3.0 | 8.0 | 0.00 | 0.00 | 0.00 | 84 | 1009.2 |
| 20260508230332 | 77 | 108 | 4.0 | 8.0 | 0.00 | 0.00 | 0.00 | 84 | 1009.5 |
| 20260508225323 | 77 | 79 | 3.0 | 7.0 | 0.00 | 0.00 | 0.00 | 83 | 1009.3 |
| 20260508224335 | 77 | 78 | 5.0 | 8.0 | 0.00 | 0.00 | 0.00 | 83 | 1009.4 |
| 20260508223326 | 77 | 64 | 2.0 | 7.0 | 0.00 | 0.00 | 0.00 | 84 | 1009.5 |
| 20260508222336 | 77 | 72 | 5.0 | 8.0 | 0.00 | 0.00 | 0.00 | 82 | 1009.6 |
| 20260508221347 | 77 | 63 | 6.0 | 9.0 | 0.00 | 0.00 | 0.00 | 82 | 1009.4 |
| 20260508220337 | 77 | 84 | 3.0 | 9.0 | 0.00 | 0.00 | 0.00 | 82 | 1009.7 |
| 20260508215348 | 78 | 96 | 4.0 | 8.0 | 0.00 | 0.00 | 0.00 | 82 | 1009.7 |
| 20260508214330 | 78 | 86 | 4.0 | 9.0 | 0.00 | 0.00 | 0.00 | 80 | 1009.8 |
| 20260508213351 | 78 | 56 | 5.0 | 9.0 | 0.00 | 0.00 | 0.00 | 80 | 1009.9 |
| 20260508212332 | 78 | 39 | 3.0 | 6.0 | 0.00 | 0.00 | 0.00 | 79 | 1010.0 |
| 20260508211324 | 78 | 58 | 5.0 | 10.0 | 0.00 | 0.00 | 0.00 | 79 | 1010.1 |
| 20260508210334 | 77 | 50 | 3.0 | 7.0 | 0.00 | 0.00 | 0.00 | 81 | 1010.3 |
| 20260508205326 | 77 | 94 | 1.0 | 6.0 | 0.00 | 0.00 | 0.00 | 80 | 1010.6 |
| 20260508204336 | 76 | 93 | 4.0 | 9.0 | 0.00 | 0.00 | 0.00 | 80 | 1010.6 |
| 20260508203324 | 78 | 72 | 4.0 | 8.0 | 0.00 | 0.00 | 0.00 | 80 | 1010.8 |
| 20260508202334 | 76 | 147 | 3.0 | 8.0 | 0.00 | 0.00 | 0.00 | 81 | 1010.8 |
| 20260508201323 | 77 | 125 | 5.0 | 10.0 | 0.00 | 0.00 | 0.00 | 80 | 1010.9 |
| 20260508200333 | 75 | 114 | 6.0 | 9.0 | 0.00 | 0.00 | 0.00 | 82 | 1011.1 |
| 20260508195341 | 76 | 59 | 4.0 | 7.0 | 0.00 | 0.00 | 0.00 | 81 | 1011.2 |
| 20260508194331 | 75 | 143 | 3.0 | 6.0 | 0.00 | 0.00 | 0.00 | 81 | 1011.4 |
| 20260508193341 | 75 | 84 | 1.0 | 9.0 | 0.00 | 0.00 | 0.00 | 82 | 1011.5 |
| 20260508192327 | 75 | 88 | 3.0 | 7.0 | 0.00 | 0.00 | 0.00 | 81 | 1011.5 |
| 20260508191337 | 75 | 51 | 5.0 | 9.0 | 0.00 | 0.00 | 0.00 | 81 | 1011.8 |
| 20260508190328 | 75 | 91 | 2.0 | 7.0 | 0.00 | 0.00 | 0.00 | 82 | 1011.8 |
| 20260508185335 | 74 | 62 | 5.0 | 8.0 | 0.00 | 0.00 | 0.00 | 81 | 1012.0 |
| 20260508184323 | 74 | 69 | 3.0 | 8.0 | 0.00 | 0.00 | 0.00 | 81 | 1012.2 |
| 20260508183333 | 73 | 51 | 3.0 | 6.0 | 0.00 | 0.00 | 0.00 | 81 | 1012.3 |
| 20260508182344 | 73 | 51 | 2.0 | 5.0 | 0.00 | 0.00 | 0.00 | 83 | 1012.3 |
| 20260508181334 | 72 | 75 | 1.0 | 5.0 | 0.00 | 0.00 | 0.00 | 84 | 1012.5 |
| 20260508180345 | 71 | 60 | 3.0 | 4.0 | 0.00 | 0.00 | 0.00 | 84 | 1012.5 |
| 20260508175327 | 71 | 69 | 1.0 | 8.0 | 0.00 | 0.00 | 0.00 | 84 | 1012.6 |
| 20260508174347 | 71 | 47 | 1.0 | 4.0 | 0.00 | 0.00 | 0.00 | 84 | 1012.5 |
| 20260508173330 | 71 | 81 | 1.0 | 6.0 | 0.00 | 0.00 | 0.00 | 84 | 1012.6 |
| 20260508172349 | 70 | 349 | 1.0 | 5.0 | 0.00 | 0.00 | 0.00 | 85 | 1012.8 |
| 20260508171331 | 70 | 359 | 3.0 | 5.0 | 0.00 | 0.00 | 0.00 | 85 | 1012.9 |
| 20260508170341 | 69 | 61 | 0.0 | 2.0 | 0.00 | 0.00 | 0.00 | 84 | 1013.1 |
| 20260508165333 | 68 | 61 | 0.0 | 2.0 | 0.00 | 0.00 | 0.00 | 84 | 1013.4 |
| 20260508164342 | 68 | 43 | 1.0 | 3.0 | 0.00 | 0.00 | 0.00 | 85 | 1013.5 |
| 20260508163332 | 68 | 360 | 0.0 | 3.0 | 0.00 | 0.00 | 0.00 | 84 | 1013.4 |
| 20260508162340 | 68 | 73 | 1.0 | 2.0 | 0.00 | 0.00 | 0.00 | 83 | 1013.5 |
| 20260508161328 | 68 | 73 | 0.0 | 2.0 | 0.00 | 0.00 | 0.00 | 83 | 1013.7 |
| 20260508160340 | 68 | 134 | 0.0 | 2.0 | 0.00 | 0.00 | 0.00 | 83 | 1013.9 |
| 20260508155331 | 68 | 126 | 0.0 | 1.0 | 0.00 | 0.00 | 0.00 | 83 | 1014.0 |
| 20260508154341 | 67 | 126 | 0.0 | 2.0 | 0.00 | 0.00 | 0.00 | 83 | 1014.1 |
| 20260508153332 | 67 | 150 | 0.0 | 2.0 | 0.00 | 0.00 | 0.00 | 84 | 1014.2 |
| 20260508152340 | 67 | 103 | 1.0 | 3.0 | 0.00 | 0.00 | 0.00 | 85 | 1014.0 |
| 20260508151332 | 67 | 147 | 1.0 | 4.0 | 0.00 | 0.00 | 0.00 | 85 | 1014.0 |
| 20260508150341 | 67 | 111 | 1.0 | 6.0 | 0.00 | 0.00 | 0.00 | 84 | 1014.0 |
| 20260508145329 | 66 | 97 | 1.0 | 4.0 | 0.00 | 0.00 | 0.00 | 85 | 1014.0 |
| 20260508144337 | 66 | 101 | 1.0 | 3.0 | 0.00 | 0.00 | 0.00 | 85 | 1014.0 |
| 20260508143327 | 65 | 101 | 1.0 | 4.0 | 0.00 | 0.00 | 0.00 | 85 | 1013.9 |
| 20260508142337 | 65 | 98 | 1.0 | 4.0 | 0.00 | 0.00 | 0.00 | 85 | 1014.0 |
| 20260508141349 | 65 | 108 | 1.0 | 5.0 | 0.00 | 0.00 | 0.00 | 85 | 1014.1 |
| 20260508140336 | 65 | 129 | 1.0 | 4.0 | 0.00 | 0.00 | 0.00 | 86 | 1014.1 |
| 20260508135348 | 64 | 32 | 3.0 | 5.0 | 0.00 | 0.00 | 0.00 | 86 | 1013.8 |
| 20260508134340 | 63 | 153 | 0.0 | 2.0 | 0.00 | 0.00 | 0.00 | 87 | 1014.0 |
| 20260508133350 | 63 | 114 | 0.0 | 2.0 | 0.00 | 0.00 | 0.00 | 89 | 1014.3 |
| 20260508132330 | 62 | 94 | 0.0 | 1.0 | 0.00 | 0.00 | 0.00 | 89 | 1014.2 |
| 20260508131350 | 62 | 94 | 0.0 | 0.0 | 0.00 | 0.00 | 0.00 | 91 | 1014.5 |
| 20260508130332 | 61 | 94 | 0.0 | 0.0 | 0.00 | 0.00 | 0.00 | 91 | 1014.5 |
| 20260508125344 | 61 | 94 | 0.0 | 0.0 | 0.00 | 0.00 | 0.00 | 91 | 1014.5 |
| 20260508124333 | 61 | 94 | 0.0 | 1.0 | 0.00 | 0.00 | 0.00 | 92 | 1014.5 |
| 20260508123342 | 60 | 94 | 0.0 | 0.0 | 0.00 | 0.00 | 0.00 | 92 | 1014.5 |
| 20260508122332 | 60 | 94 | 0.0 | 1.0 | 0.00 | 0.00 | 0.00 | 92 | 1014.6 |
| 20260508121324 | 60 | 94 | 0.0 | 1.0 | 0.00 | 0.00 | 0.00 | 92 | 1014.7 |
| 20260508120332 | 60 | 94 | 0.0 | 1.0 | 0.00 | 0.00 | 0.00 | 92 | 1014.8 |
| 20260508115323 | 60 | 94 | 0.0 | 2.0 | 0.00 | 0.00 | 0.00 | 92 | 1014.7 |
| 20260508114335 | 60 | 310 | 0.0 | 0.0 | 0.00 | 0.00 | 0.00 | 92 | 1015.1 |
| 20260508113326 | 60 | 310 | 0.0 | 1.0 | 0.00 | 0.00 | 0.00 | 92 | 1015.2 |
| 20260508112338 | 60 | 310 | 0.0 | 2.0 | 0.00 | 0.00 | 0.00 | 92 | 1015.0 |
| 20260508111325 | 60 | 349 | 1.0 | 4.0 | 0.00 | 0.00 | 0.00 | 92 | 1014.9 |
| 20260508110335 | 60 | 13 | 2.0 | 4.0 | 0.00 | 0.00 | 0.00 | 92 | 1014.7 |
| 20260508105326 | 60 | 335 | 1.0 | 3.0 | 0.00 | 0.00 | 0.00 | 93 | 1014.8 |
| 20260508104337 | 60 | 321 | 0.0 | 3.0 | 0.00 | 0.00 | 0.00 | 93 | 1014.7 |
| 20260508103328 | 60 | 352 | 0.0 | 2.0 | 0.00 | 0.00 | 0.00 | 93 | 1015.0 |
| 20260508102336 | 60 | 302 | 0.0 | 1.0 | 0.00 | 0.00 | 0.00 | 93 | 1015.2 |
| 20260508101347 | 60 | 302 | 0.0 | 2.0 | 0.00 | 0.00 | 0.00 | 92 | 1015.2 |
| 20260508100335 | 60 | 352 | 0.0 | 3.0 | 0.00 | 0.00 | 0.00 | 92 | 1015.3 |
| 20260508095345 | 60 | 359 | 1.0 | 3.0 | 0.00 | 0.00 | 0.00 | 92 | 1015.3 |